Torna al catalogo

TZINGHUA 1

AttivoScienzaSSO
NORAD 26385·PAYLOAD·🇨🇳 China

Lanciato Jun 28, 2000 da Plesetsk Cosmodrome

Loading…

Prossimi Passaggi (prossime 24 ore)

TLE

AggiornatoSource: Space-Track

Epoca: Sep 14, 2026, 08:00 UTC

1 26385U 00033B   26257.33361326  .00000392  00000-0  75858-4 0  9990
2 26385  97.8921 227.5685 0014545 171.9946 188.1494 14.68345477399963

Traccia TZINGHUA 1 in tempo reale con AllMySat

Download on the App Store